Regional Weather Roundup
Issued by NWS

Home | Current Version | Previous Version | Graphics & Text | Print | Product List | Glossary On
Versions: 1 2 3 4 5 6 7 8 9 10 11 12 13 14 15 16 17 18 19 20 21 22 23 24 25 26 27 28 29 30 31 32 33 34 35 36 37 38 39 40 41 42 43 44 45 46 47 48 49 50
000
ASUS43 KMPX 270210
RWRMN
WEATHER ROUNDUP FOR MINNESOTA
NATIONAL WEATHER SERVICE TWIN CITIES/CHANHASSEN MN
900 PM CDT TUE MAY 26 2015


NOTE: "FAIR" INDICATES FEW OR NO CLOUDS BELOW 12,000 FEET WITH NO
SIGNIFICANT WEATHER AND/OR OBSTRUCTIONS TO VISIBILITY. N/A MEANS
CURRENT SKY AND/OR WEATHER CONDITIONS ARE NOT AVAILABLE.

MNZ060>063-068>070-270300-
   Twin Cities Metro

CITY           SKY/WX    TMP DP  RH WIND       PRES   REMARKS
TWIN CITIES    CLOUDY    58  56  93 NW6       29.78R
ST PAUL        CLOUDY    58  56  93 NW6       29.78R
CRYSTAL        CLOUDY    57  56  96 NW3       29.76F
BLAINE         CLOUDY    57  57 100 NW3       29.77R
LAKEVILLE      DRIZZLE   55  55 100 W6        29.79R
EDEN PRAIRIE   CLOUDY    57  55  93 NW5       29.78R
SOUTH ST PAUL  CLOUDY    58  56  94 CALM      29.78R
LAKE ELMO      LGT RAIN  55  55 100 CALM      29.78R
$$
MNZ001>005-007-008-013>017-022>024-027-028-270300-
   Northwest Minnesota

CITY           SKY/WX    TMP DP  RH WIND       PRES   REMARKS
BEMIDJI        CLOUDY    67  53  59 SW5       29.78R
HALLOCK        PTCLDY    73  43  33 N8        29.72R
ROSEAU         PTCLDY    70  54  56 S3        29.73R
WARROAD        PTCLDY    68  55  64 N3        29.74R
THIEF RVR FALL PTCLDY    72  54  53 S7        29.76R
CROOKSTON      PTCLDY    68  54  60 S3        29.75R
FOSSTON        TSTM      66  55  68 CALM      29.79R
DETROIT LAKES  CLOUDY    68  55  64 CALM      29.80R
MOORHEAD       MOCLDY    70  55  60 S3        29.76F
PARK RAPIDS    CLOUDY    66  56  70 SW6       29.78S
MAHNOMEN       FAIR      67  56  68 S5        29.77R
$$
MNZ006-009>011-018-025>026-270300-
   North Central Minnesota

CITY           SKY/WX    TMP DP  RH WIND       PRES   REMARKS
BAUDETTE       MOCLDY    69  53  56 SW5       29.73S
FLAG ISLAND    MOCLDY    68  52  56 N10       29.74R
INTL FALLS     MOCLDY    64  54  69 CALM      29.73F
WASKISH        MOCLDY    66  57  72 CALM      29.75S
BIG FORK       CLOUDY    63  57  82 CALM      29.76S
LONGVILLE      CLOUDY    63  57  82 CALM      29.78R
GRAND RAPIDS   CLOUDY    61  52  72 S6        29.78S
CRANE LAKE     CLOUDY    61  55  82 CALM      29.76F
ORR            CLOUDY    61  50  67 CALM      29.74S
COOK           CLOUDY    64  54  68 CALM      29.77S
WALKER         FAIR      62  54  74 CALM      29.78R
$$
MNZ012-019>021-037-270300-
   Northeast Minnesota

CITY           SKY/WX    TMP DP  RH WIND       PRES   REMARKS
DULUTH         CLOUDY    58  50  75 N5        29.77F
HIBBING        CLOUDY    58  52  80 CALM      29.77F
EVELETH        CLOUDY    59  50  72 S3        29.79S
DULUTH HARBOR  CLOUDY    52  50  93 S3        29.77S
TWO HARBORS    CLOUDY    61  54  77 CALM      29.74F
GRAND MARAIS     N/A     53  49  86 CALM      29.75F
G MARAIS ARPRT CLOUDY    54  48  82 N3        29.78F
$$
MNZ029>031-032-039>041-046>048-054>057-064-270300-
   West Central Minnesota

CITY           SKY/WX    TMP DP  RH WIND       PRES   REMARKS
FERGUS FALLS   CLOUDY    66  57  72 SW5       29.79S
WHEATON        CLOUDY    64  55  72 S6        29.81S
MORRIS         CLOUDY    66  57  72 W5        29.80S
ALEXANDRIA     CLOUDY    62  54  74 SW3       29.82R
ELBOW LAKE     FAIR      65  56  71 SW5       29.79S
WADENA         CLOUDY    64  55  72 W3        29.79S
GLENWOOD       CLOUDY    61  57  88 S5        29.82R
APPLETON       CLOUDY    64  55  72 SW3       29.81R
BENSON         CLOUDY    63  57  82 SW3       29.81S
ORTONVILLE     CLOUDY    64  54  68 SW3       29.81S
MADISON        CLOUDY    64  55  72 W3        29.82R
WILLMAR        FAIR      63  59  88 CALM      29.82S
$$
MNZ033>034-036-042>043-049>051-058-059-270300-
   Central Minnesota

CITY           SKY/WX    TMP DP  RH WIND       PRES   REMARKS
ST CLOUD       CLOUDY    59  56  89 CALM      29.78S
SAUK CENTRE    FAIR      61  57  87 CALM      29.81R
PAYNESVILLE    CLOUDY    56  55  95 CALM      29.81R
AITKIN         CLOUDY    59  54  82 CALM      29.77S
PINE RIVER     CLOUDY    63  55  77 CALM      29.82S
BRAINERD       CLOUDY    60  54  80 CALM      29.79S
STAPLES        CLOUDY    63  54  72 S3        29.80R
LONG PRAIRIE   FAIR      61  55  82 SW3       29.81R
LITTLE FALLS   CLOUDY    59  55  88 CALM      29.80R
LITCHFIELD     CLOUDY    59  59 100 CALM      29.81R
BUFFALO        CLOUDY    57  55  92 CALM      29.80R
MAPLE LAKE     CLOUDY    58  57  96 CALM      29.80S
$$
MNZ037-044-045-052-053-270300-
   East Central Minnesota

CITY           SKY/WX    TMP DP  RH WIND       PRES   REMARKS
PRINCETON      CLOUDY    59  55  88 CALM      29.78S
MORA           CLOUDY    59  50  72 CALM      29.79S
CAMBRIDGE      CLOUDY    61  52  72 CALM      29.75S
RUSH CITY      CLOUDY    56  55  94 CALM      29.77R
MOOSE LAKE     CLOUDY    57  54  88 CALM      29.76S
HINCKLEY       FAIR      59  54  82 N5        29.77R
CLOQUET        CLOUDY    57  50  77 N5        29.77F
MCGREGOR       CLOUDY    59  52  77 CALM      29.78F
$$
MNZ071>073-080-081-089-090-097-098-270300-
   Southwest Minnesota

CITY           SKY/WX    TMP DP  RH WIND       PRES   REMARKS
MONTEVIDEO     CLOUDY    63  57  82 CALM      29.83R
GRANITE FALLS  CLOUDY    60  56  89 S3        29.84R
CANBY          CLOUDY    62  56  80 W3        29.84R
MARSHALL       CLOUDY    61  54  77 CALM      29.82S
REDWOOD FALLS  CLOUDY    60  56  86 W5        29.81S
OLIVIA         CLOUDY    55  54  94 W5        29.81R
PIPESTONE      CLOUDY    63  54  72 NW7       29.85R
WINDOM         CLOUDY    57  55  94 CALM      29.83S
WORTHINGTON    MOCLDY    61  55  82 N5        29.84R
JACKSON        CLOUDY    59  55  88 NW3       29.83S
TRACY          CLOUDY    60  58  92 CALM      29.84R
SLAYTON        CLOUDY    59  58  95 CALM      29.85R
$$
MNZ065>067-074>077-082>085-091>093-270300-
   South Central Minnesota

CITY           SKY/WX    TMP DP  RH WIND       PRES   REMARKS
MANKATO        CLOUDY    57  55  94 NW6       29.80S
NEW ULM        CLOUDY    57  57 100 CALM      29.81R
ST JAMES       CLOUDY    59  57  94 W5        29.83R
FAIRMONT       CLOUDY    57  52  82 NW6       29.82R
GLENCOE        CLOUDY    58  58  97 CALM      29.80R
FARIBAULT      LGT RAIN  57  57 100 W6        29.80R
OWATONNA       DRIZZLE   59  55  88 W5        29.80R
WASECA         DRIZZLE   55  54  94 NW6       29.81R
ALBERT LEA     LGT RAIN  59  57  94 NW3       29.79S
$$
MNZ078>079-086>088-094>096-270300-
   Southeast Minnesota

CITY           SKY/WX    TMP DP  RH WIND       PRES   REMARKS
ROCHESTER      LGT RAIN  59  58  96 NW7       29.79S
RED WING       DRIZZLE   59  57  94 W7        29.76R
STANTON        LGT RAIN  59  56  91 NW5       29.77R
DODGE CENTER   CLOUDY    59  57  94 NW5       29.79R
WINONA         CLOUDY    61  59  94 W8        29.74S
AUSTIN         CLOUDY    57  55  94 NW5       29.78S
PRESTON        CLOUDY    58  56  91 NW9       29.78S
$$
ABBREVIATIONS USED IN REMARKS
   TC - TEMPERATURES IN CELSIUS
  WCI - WIND CHILL INDEX
   HX - HEAT INDEX
  VSB - VISIBILITY
$$



USA.gov is the U.S. government's official web portal to all federal, state and local government web resources and services.